RH
9 9 10 10 10 11 11 12 12 12 12 12 13 13 13 14 14 15 15 15 16 18 20 18 15 12 9 6 5 4 3 3 3 3 3 3 3 3 3 3 5 8 10 25 46 51 50 45 38 38 39 40 41 39 35 34 46 52 52 54 51 52 53 57 69 80 86 94 100 87 71 65 53 36 28 27 28 20 15 15 11 15 20 13 9 10 12 13
9 9 9 10 11 11 12 12 13 13 13 13 14 14 14 14 15 15 16 16 16 17 19 21 20 16 13 10 7 5 4 3 3 3 3 3 3 3 3 3 5 9 11 25 45 50 50 46 38 38 42 45 42 39 39 36 41 44 46 50 48 51 55 60 69 78 86 93 99 88 73 67 53 40 35 28 24 17 11 13 11 14 21 15 8 10 12 13
9 9 9 10 10 11 11 12 13 14 14 15 14 15 15 15 16 16 17 17 17 17 18 21 22 21 17 13 10 7 5 4 3 3 3 3 3 3 3 3 5 8 11 22 39 48 51 45 38 39 41 47 47 39 38 39 40 42 48 51 48 54 59 62 67 75 88 95 99 89 76 68 47 35 32 22 16 12 8 11 12 14 22 18 8 10 12 12
9 9 9 9 10 11 11 12 13 14 15 15 16 16 16 16 17 17 18 18 18 18 18 19 22 24 22 18 14 10 7 5 4 3 3 4 3 3 3 3 5 7 9 18 35 49 53 45 41 44 39 50 67 50 35 42 44 42 50 55 57 66 68 66 67 79 93 97 99 89 79 69 41 29 27 17 13 9 5 8 10 13 22 20 9 11 13 12
10 9 9 10 11 11 12 13 13 15 15 16 16 16 17 17 18 18 19 19 19 20 19 19 20 23 26 23 18 13 10 7 5 4 4 4 3 3 3 3 5 6 9 15 34 53 55 47 43 48 44 54 77 62 41 44 44 44 51 57 64 72 71 67 71 87 96 96 99 88 78 68 41 26 21 15 11 8 6 6 8 12 21 20 11 12 14 12
10 9 9 10 11 12 13 13 14 16 17 18 17 17 18 18 19 19 19 20 20 21 21 21 20 21 26 27 24 17 13 9 7 5 4 4 3 4 3 3 4 6 9 14 36 55 56 51 47 51 49 53 70 68 55 47 42 46 51 55 63 69 69 68 75 91 98 98 97 84 76 65 42 26 18 15 11 8 7 6 8 11 17 15 10 13 14 13
10 10 9 10 12 13 13 14 15 17 18 19 19 19 19 19 19 19 20 21 21 21 21 22 22 21 24 28 29 23 17 12 10 7 5 4 3 4 3 3 4 6 8 15 38 57 60 59 56 54 48 54 69 71 62 48 41 46 47 52 62 71 71 68 78 91 99 100 89 79 75 60 44 33 22 16 13 9 8 6 8 12 14 10 9 13 14 13
10 10 9 11 13 13 15 16 17 19 20 21 22 22 22 21 21 20 21 22 22 21 20 21 22 22 23 26 31 29 22 16 12 9 6 5 4 4 4 3 3 6 9 16 40 59 65 67 64 55 47 60 74 73 68 50 39 43 45 50 61 77 76 69 84 95 99 100 85 75 70 58 53 46 29 19 16 11 9 7 7 13 13 9 9 13 14 14
11 11 11 12 14 15 17 20 23 24 25 25 25 25 25 24 23 22 22 22 22 22 20 19 20 22 23 25 30 33 28 20 15 11 8 6 5 4 4 4 3 6 9 14 37 58 69 77 74 58 51 66 73 73 74 54 39 45 48 50 62 81 78 71 86 95 99 100 85 72 67 65 65 54 32 20 19 15 10 8 7 12 14 9 10 13 15 14
11 12 12 14 15 17 22 27 31 32 32 31 29 28 27 26 25 23 22 21 21 21 20 19 17 19 21 23 27 32 32 26 19 13 10 7 5 5 4 4 4 5 9 13 34 59 74 86 81 61 56 69 73 73 74 60 52 51 50 56 73 86 77 73 84 89 95 93 81 77 73 73 72 61 40 24 23 18 12 11 6 10 14 10 10 14 15 14
12 12 13 16 19 23 30 35 38 38 38 37 35 32 30 27 25 23 21 20 19 18 18 18 17 16 16 19 23 28 32 30 24 16 12 9 6 6 4 5 4 4 8 11 32 60 78 86 78 59 57 70 76 74 72 71 67 60 59 69 83 89 78 78 87 87 92 91 86 86 79 74 72 68 51 31 28 22 14 13 8 8 12 9 9 14 15 14
13 13 15 20 26 32 39 42 44 43 42 42 37 32 27 24 21 19 18 16 16 15 15 15 15 15 14 14 17 23 29 31 29 20 14 11 8 6 4 5 5 4 7 9 27 55 74 80 71 61 62 68 74 70 68 73 72 67 70 73 81 86 79 78 85 86 90 92 94 94 85 77 72 72 61 38 29 25 16 13 10 8 9 8 8 12 15 14
14 16 20 26 35 42 46 48 48 47 46 41 31 24 19 16 14 13 12 11 12 12 11 11 11 12 12 12 13 17 24 31 32 24 17 12 10 7 5 5 5 5 6 8 20 43 63 70 66 69 69 67 71 68 63 67 69 74 77 73 79 85 81 80 81 82 88 91 95 99 94 86 75 72 70 51 32 26 22 15 11 11 10 8 7 11 14 14
17 20 26 35 44 49 51 52 52 49 42 30 19 13 10 9 8 7 7 7 7 8 8 8 7 8 10 10 10 10 16 26 32 29 20 14 12 9 6 6 6 5 7 7 13 30 50 60 62 70 71 64 65 67 66 64 64 77 85 78 81 86 86 87 83 83 92 94 97 100 99 97 88 77 74 66 44 27 25 20 13 13 13 10 7 9 12 12
21 26 33 42 49 53 55 56 53 45 31 18 10 7 6 5 5 4 4 4 4 4 5 5 4 5 6 8 8 7 10 19 30 32 24 17 13 10 7 6 6 6 7 7 10 23 42 54 57 66 74 64 58 66 70 65 62 73 85 79 80 87 85 86 87 88 95 97 99 100 98 99 98 88 80 76 60 34 26 25 17 15 16 13 8 6 10 11
25 32 39 46 52 54 57 57 50 36 21 11 6 5 5 5 5 4 4 3 3 3 3 4 3 4 4 5 6 6 7 12 24 32 29 21 15 12 9 6 6 6 7 8 9 20 35 48 55 62 77 72 58 64 68 66 63 67 77 75 75 84 83 84 88 87 90 93 97 99 96 97 100 98 90 83 73 46 29 28 21 17 19 17 10 6 8 11
29 37 42 48 53 55 58 55 42 26 14 8 6 5 5 4 4 4 4 3 3 3 2 3 3 3 3 4 5 6 6 8 16 27 31 25 17 14 11 7 7 5 7 8 8 20 30 42 55 61 74 76 64 64 66 65 64 63 73 76 75 80 81 84 91 88 85 85 89 92 90 90 93 99 100 90 82 63 39 31 26 20 20 19 14 8 7 10
32 38 42 48 53 56 58 50 34 19 11 7 6 5 5 5 5 4 4 3 3 3 3 3 2 3 3 4 5 5 6 5 9 20 29 28 20 15 13 9 7 5 7 7 7 19 31 46 61 62 68 74 69 70 73 72 70 68 73 79 83 84 79 81 91 92 87 81 80 81 81 79 77 86 101 96 87 80 59 40 30 24 21 21 21 13 7 8
35 37 40 47 53 58 57 44 27 16 9 6 5 5 5 5 5 4 4 4 4 4 3 3 3 3 3 3 4 4 5 4 5 13 24 29 23 17 15 11 8 6 6 6 7 15 33 55 63 57 63 76 79 81 85 85 86 84 77 79 87 88 79 77 86 90 88 84 78 74 72 71 66 69 88 99 94 90 76 55 40 29 22 21 25 20 9 6
37 34 38 46 54 59 53 36 22 13 7 5 5 6 5 5 4 4 6 6 6 4 3 3 3 3 3 3 3 3 3 3 3 7 17 26 25 18 16 13 10 7 5 6 9 15 36 63 68 62 70 84 89 90 91 93 98 95 79 76 83 81 76 73 78 86 87 83 78 75 69 66 66 62 70 90 99 96 86 72 57 39 27 24 25 24 13 7
35 32 38 46 55 58 46 28 17 10 5 5 5 6 5 5 5 6 8 9 7 4 3 3 3 2 2 3 3 3 3 3 3 4 11 21 24 20 17 16 11 8 7 6 9 18 38 67 81 80 84 88 92 94 96 97 101 97 82 77 86 89 81 68 66 77 85 84 81 79 73 67 69 64 60 72 92 101 95 86 74 53 36 28 26 24 17 10
32 32 40 48 56 54 40 23 14 8 5 5 5 6 5 5 6 8 11 12 9 7 4 2 3 3 2 3 3 3 3 3 3 3 7 16 21 21 19 17 13 10 9 6 8 14 30 67 93 92 85 84 91 97 99 99 100 99 89 82 90 97 89 73 66 75 85 88 88 85 81 80 79 71 63 65 78 93 100 98 85 64 46 35 27 23 21 17
28 33 43 50 54 49 34 20 12 7 5 5 6 5 5 7 8 10 14 16 15 12 8 3 2 3 2 2 2 3 3 3 3 3 4 11 17 20 20 19 15 11 10 8 9 12 27 66 95 90 78 77 87 97 99 100 100 100 97 87 86 90 88 82 79 82 86 88 93 92 87 89 88 77 67 65 66 73 88 101 93 71 53 42 31 25 25 25
28 36 46 52 51 42 28 17 11 6 5 6 6 6 7 10 12 14 17 20 21 17 13 8 4 2 2 3 2 3 3 3 3 3 3 7 13 18 21 20 17 12 12 11 12 24 43 70 88 86 78 75 84 97 100 100 100 100 100 93 89 92 92 92 87 83 84 86 91 93 88 88 88 78 67 62 63 66 74 89 96 81 58 43 33 27 28 28
31 39 49 53 47 35 22 15 9 5 6 6 6 7 9 14 18 19 20 23 24 22 19 16 10 5 2 2 3 2 3 3 3 3 3 5 11 16 20 22 20 14 14 14 14 30 52 69 82 88 86 80 82 95 100 100 100 100 100 97 96 99 99 98 91 83 82 83 88 89 84 83 82 78 71 62 66 79 81 83 95 93 69 48 37 32 33 30
36 42 52 52 40 27 17 12 7 5 7 6 6 7 9 18 24 24 25 25 27 27 25 23 20 14 7 3 3 3 3 3 3 3 3 4 8 14 19 22 22 17 14 16 19 29 47 66 80 87 90 86 83 90 99 100 100 99 101 100 100 101 100 99 92 84 80 77 80 81 75 75 74 71 72 70 70 84 93 91 96 97 81 61 46 39 40 35
41 46 54 49 32 20 14 10 7 6 7 6 7 6 7 17 23 26 31 31 31 31 29 29 28 24 16 7 3 4 4 5 4 3 3 4 6 11 18 22 24 22 15 14 20 28 42 64 77 80 87 89 84 86 95 100 101 100 100 100 99 99 99 95 87 80 77 72 70 69 64 66 67 62 62 67 70 79 92 97 99 99 87 74 59 43 43 42
45 50 53 41 25 17 12 8 7 7 8 6 5 5 5 10 19 29 37 36 35 34 33 35 33 28 24 17 9 5 5 8 7 4 3 3 5 9 16 21 24 25 19 13 15 23 38 60 73 74 80 84 83 86 93 99 101 100 100 100 98 95 94 93 88 82 76 72 69 63 58 57 56 52 48 51 61 72 87 96 99 101 92 81 71 50 42 44
47 52 49 33 19 15 11 8 7 8 8 5 4 4 4 9 22 34 39 38 38 38 37 38 34 28 27 23 17 9 6 9 11 7 4 3 5 8 13 20 23 25 24 18 12 14 27 47 61 68 73 76 80 85 90 97 101 99 98 100 99 96 95 96 93 87 79 75 72 65 59 54 48 44 40 40 50 65 83 92 96 101 96 87 79 57 42 44
48 51 42 26 16 13 10 8 8 9 8 4 3 4 5 13 26 33 35 37 40 41 40 38 34 30 26 23 21 16 9 8 12 11 6 4 5 7 10 17 22 23 25 22 16 11 14 25 38 50 58 65 73 79 85 93 98 98 97 98 101 100 98 96 92 86 81 77 73 67 60 53 46 41 35 33 40 55 74 85 91 98 96 91 84 62 46 46
48 49 36 21 14 11 11 8 8 10 8 3 3 4 6 15 26 32 33 36 40 41 39 36 34 31 27 24 22 19 13 8 11 15 12 7 5 7 10 16 20 23 24 24 22 14 11 13 19 28 38 48 59 69 78 85 89 95 98 98 100 101 97 93 88 84 81 78 73 68 62 53 48 43 34 29 32 46 64 75 86 97 97 95 86 67 52 50
48 46 30 19 14 12 12 8 8 11 7 3 3 3 7 13 22 30 31 34 40 41 37 35 36 33 27 24 21 19 17 10 8 15 17 12 8 8 10 16 21 24 26 26 25 19 13 11 12 16 21 29 42 55 68 78 81 87 94 98 99 98 95 91 86 83 82 78 72 68 62 54 50 44 34 29 31 45 61 66 75 89 97 98 87 72 62 54
48 43 28 17 13 12 11 8 9 11 6 3 4 3 6 10 16 22 25 29 35 37 34 33 36 36 29 25 22 18 19 17 13 15 20 18 14 11 11 15 20 25 27 27 27 23 17 12 11 13 14 18 26 37 52 65 73 76 80 90 95 91 87 84 81 82 82 79 72 68 64 60 58 48 37 35 37 50 64 63 65 74 88 99 89 77 72 60
45 41 26 17 14 12 11 8 9 9 6 4 4 3 6 9 14 19 21 23 27 30 33 33 35 38 34 28 25 21 25 31 25 19 25 27 20 15 15 17 21 25 26 26 28 26 21 16 12 11 12 13 16 24 38 53 66 70 71 80 89 85 79 75 76 82 83 78 71 65 60 61 68 61 48 44 46 58 69 66 63 64 77 95 89 79 79 68
43 39 26 16 14 13 11 9 8 8 5 4 4 3 4 9 15 19 21 24 26 29 32 33 35 38 37 34 32 31 38 51 46 31 32 37 29 21 17 16 19 26 28 28 28 28 24 19 14 11 11 12 13 17 27 43 58 64 66 73 77 74 73 75 77 82 82 73 64 58 48 52 72 74 60 52 52 62 72 69 66 64 70 90 93 82 82 76
43 37 26 17 13 12 10 9 8 7 6 5 4 3 4 7 12 19 28 33 34 35 36 39 41 42 42 41 46 50 56 70 68 47 37 38 33 26 20 18 19 24 30 32 30 30 27 22 16 13 11 11 14 16 21 33 46 53 54 56 58 60 67 77 80 80 77 67 57 54 46 50 75 85 73 65 63 68 77 72 68 67 68 86 99 91 86 85
43 38 27 18 13 12 10 9 8 7 6 5 4 4 4 5 9 19 33 39 40 42 45 47 50 52 50 49 59 69 76 87 83 63 55 52 44 36 28 24 21 21 31 37 35 33 29 24 20 14 12 12 14 17 20 27 37 44 46 47 56 64 66 71 76 72 68 62 53 52 48 49 72 89 83 76 75 78 81 75 70 71 72 82 97 97 92 92
40 40 29 19 14 12 10 8 8 8 7 5 4 5 4 5 7 15 28 38 42 48 53 54 54 58 57 55 66 80 88 98 95 84 84 81 69 56 42 34 30 27 33 39 40 38 31 26 22 16 13 13 14 17 19 22 27 37 46 52 65 72 62 54 57 55 56 59 54 52 52 50 65 86 87 80 81 86 85 78 74 75 75 78 88 97 97 95
35 41 31 19 14 12 10 8 8 8 7 5 5 5 4 5 6 9 20 32 39 46 53 57 55 58 60 58 68 83 92 96 91 88 92 92 87 76 59 52 49 41 42 44 43 42 37 30 23 18 15 13 14 16 16 17 20 28 41 52 63 72 65 53 46 42 47 54 51 50 53 53 65 87 91 82 83 88 87 81 78 78 77 74 79 88 96 97
28 39 32 20 15 13 10 9 8 8 8 6 6 6 5 5 5 6 11 20 32 42 48 53 54 57 63 61 62 73 86 92 84 79 85 92 95 88 77 74 65 53 54 55 48 43 41 36 27 20 17 13 13 14 13 15 17 21 29 39 51 61 64 65 61 52 50 51 47 44 45 49 70 94 95 84 84 90 88 82 79 79 76 71 71 78 89 97
22 36 33 22 17 15 12 10 8 8 9 7 6 7 6 5 5 6 6 8 23 42 50 53 54 57 64 68 65 62 70 81 79 73 79 91 98 97 92 89 77 65 64 62 55 51 46 41 33 24 19 15 13 12 13 15 18 21 24 28 39 49 54 62 63 55 52 52 47 41 37 43 67 93 98 90 87 89 88 82 78 78 74 69 67 71 83 94
20 32 33 25 20 16 13 12 9 9 10 8 7 7 7 7 5 6 6 4 14 35 53 60 59 59 62 68 69 61 57 64 68 68 73 81 92 98 98 94 88 87 84 71 65 64 54 44 37 29 22 17 14 13 14 16 18 22 25 25 31 41 47 53 53 49 50 49 43 38 36 40 57 77 90 94 91 90 90 84 79 78 75 70 67 67 75 85
18 29 34 29 23 18 14 13 12 11 11 10 8 7 7 8 6 6 6 5 7 19 42 60 64 64 66 69 69 66 63 63 66 69 69 69 78 89 96 97 96 99 94 78 72 73 63 52 40 32 27 20 15 14 13 17 20 20 23 24 25 31 37 43 47 52 54 48 41 37 32 36 47 63 83 97 96 93 93 88 82 81 78 73 69 67 69 74
17 26 33 30 24 19 16 14 13 12 12 11 9 8 7 7 7 7 6 6 6 7 20 44 59 64 69 73 75 75 74 71 70 71 70 70 74 79 86 92 95 98 91 79 81 83 75 65 48 35 32 24 18 19 16 16 20 19 20 22 21 23 27 32 38 45 48 42 38 35 29 30 41 55 76 96 99 95 94 93 88 86 86 81 74 70 69 69
16 23 30 30 26 20 15 14 14 13 12 11 11 8 7 7 7 8 7 6 8 6 7 22 43 58 65 69 73 77 80 79 75 74 72 72 75 77 77 79 85 97 94 82 84 88 85 79 61 46 43 32 21 22 19 16 17 18 19 20 20 20 21 24 28 32 34 32 29 29 28 28 34 44 61 83 96 96 93 93 92 90 90 88 82 76 72 71
16 20 28 31 29 23 17 15 14 13 11 11 11 9 8 8 7 7 8 7 8 8 6 9 21 38 50 58 64 68 76 79 76 75 75 73 73 75 76 73 74 89 98 91 85 87 93 93 76 66 65 48 29 25 21 16 16 16 19 21 21 20 19 21 24 25 27 28 25 25 24 23 27 34 45 63 82 93 94 92 93 93 91 89 85 81 75 72
16 18 25 31 31 24 19 16 13 12 12 11 11 10 8 8 7 7 8 8 8 9 8 7 8 15 28 45 57 65 73 76 71 71 74 75 77 77 77 78 74 79 94 99 89 84 97 103 87 80 84 68 47 42 34 22 17 17 20 23 23 21 19 20 25 29 32 32 29 27 24 23 25 28 34 47 63 79 89 90 88 88 88 85 82 80 78 73
18 17 20 28 31 26 20 18 14 12 12 11 11 11 9 8 8 8 8 8 9 9 9 9 8 7 10 22 43 67 82 80 71 66 67 70 76 76 76 81 82 77 83 96 97 87 92 103 93 85 92 83 65 61 54 37 25 22 23 26 26 24 22 22 27 36 44 42 37 35 34 32 30 26 26 33 45 59 71 76 77 76 75 72 68 68 69 68
18 16 17 24 31 30 24 19 15 13 12 11 11 11 11 9 8 9 8 8 8 9 10 10 9 9 6 6 22 55 82 84 73 65 63 64 70 72 71 78 88 82 73 84 101 94 86 98 97 85 90 93 81 77 73 57 41 33 32 34 34 30 27 25 27 36 49 53 51 50 51 49 42 35 30 30 36 45 51 55 59 60 58 53 49 47 48 51
19 17 16 20 30 34 28 19 16 14 13 12 11 12 12 10 9 9 9 8 8 8 9 11 10 9 9 5 8 29 60 78 76 66 60 61 66 70 68 70 82 85 73 75 94 95 85 94 100 89 88 96 93 91 89 79 64 53 47 44 42 39 38 34 31 33 44 57 63 63 65 63 57 53 51 45 43 47 47 46 49 50 43 35 30 29 29 30
19 18 17 18 27 35 30 22 18 14 13 13 12 13 14 12 9 9 9 9 9 8 8 10 10 9 10 9 6 10 30 58 74 70 61 60 65 70 70 68 73 79 75 71 80 89 91 94 97 92 91 93 93 96 99 94 84 76 70 62 54 50 49 47 42 37 37 48 62 68 72 75 74 72 70 62 55 56 57 55 53 47 36 26 24 26 25 21
19 18 18 19 25 33 31 24 19 15 12 12 11 12 16 15 11 10 10 9 9 9 8 9 10 10 10 11 10 6 11 36 63 71 66 66 69 70 70 69 68 68 69 67 67 75 88 96 97 97 94 88 85 90 98 99 95 91 90 84 73 63 56 52 49 45 38 39 49 60 68 75 79 80 79 75 71 71 72 71 63 50 38 31 29 29 27 22
Wind_Speed
21 20 19 18 18 18 18 19 19 19 20 20 21 22 22 23 23 23 24 25 27 28 27 27 25 24 22 21 20 19 19 18 18 19 20 19 15 13 15 15 14 15 17 22 24 23 21 20 19 17 16 14 14 14 14 14 12 9 8 7 5 2 1 2 1 4 8 8 15 21 18 16 16 14 13 13 13 15 17 15 12 12 12 14 20 25 22 17
24 24 22 21 20 19 19 19 20 20 21 21 22 22 23 24 24 24 24 25 26 27 28 28 27 26 24 22 21 20 20 19 19 21 20 18 17 17 17 16 16 17 19 23 26 25 24 23 21 19 17 16 15 15 15 14 12 10 8 7 5 2 1 2 2 4 8 9 18 23 20 17 18 18 16 15 16 16 18 17 13 13 13 13 18 25 22 18
27 26 25 24 23 22 21 20 20 21 22 22 23 23 24 24 25 26 26 25 25 27 28 29 29 28 26 25 23 22 22 21 22 21 19 19 19 18 17 16 17 19 21 25 28 27 25 23 20 18 18 17 15 15 16 14 12 10 8 6 5 2 2 2 3 4 8 9 19 24 21 19 18 20 19 17 18 18 19 20 15 13 14 13 18 24 22 18
28 28 27 26 25 25 24 22 21 21 22 23 24 24 24 25 26 27 27 27 27 27 28 29 30 30 28 27 25 24 23 23 24 21 20 21 20 18 18 17 18 20 22 26 30 27 24 21 19 18 18 17 15 15 15 13 12 10 8 7 5 2 2 2 3 5 9 10 20 26 22 21 19 20 20 19 19 19 20 22 22 18 16 15 18 23 22 19
29 28 28 27 26 26 25 24 23 23 22 23 24 25 25 25 26 27 28 29 28 27 28 28 30 31 30 29 27 25 24 25 25 22 21 21 20 19 19 19 19 21 23 26 29 26 23 21 20 19 19 19 15 15 15 13 12 11 9 8 7 2 1 1 1 8 11 11 24 30 25 22 20 20 20 19 18 19 18 21 24 23 21 20 20 22 22 19
30 29 28 27 26 26 26 25 24 24 24 23 24 25 25 26 27 27 28 29 29 29 28 28 30 31 31 30 29 28 27 27 26 23 23 22 20 20 20 20 19 21 23 25 28 26 24 22 21 21 20 20 17 15 15 14 14 12 10 8 7 2 1 2 1 9 11 14 28 33 27 24 20 19 18 17 16 17 18 20 23 23 23 23 22 23 22 19
31 30 29 28 27 26 26 25 25 24 24 24 24 25 25 26 27 28 28 28 29 29 29 29 30 30 31 32 31 30 29 27 26 25 25 23 22 21 21 20 20 22 23 25 28 27 24 22 22 22 22 20 18 17 16 16 15 13 11 8 7 2 2 2 2 8 13 22 32 30 27 25 21 18 17 16 16 15 16 18 22 23 22 22 23 23 22 19
32 31 30 29 27 26 26 25 25 24 24 24 24 25 26 26 27 28 28 28 29 29 29 29 30 31 31 32 32 31 31 28 27 26 26 24 23 23 22 21 21 22 24 27 29 28 26 24 23 24 23 21 19 18 18 17 16 13 11 8 5 3 2 3 5 9 15 27 33 28 27 24 19 18 18 17 15 15 15 16 19 22 21 20 22 24 23 20
32 30 29 28 27 27 26 25 24 24 23 23 24 24 25 26 27 27 28 28 28 28 28 29 30 31 31 32 32 33 32 30 27 26 27 26 25 24 23 23 22 23 26 28 31 31 28 25 25 25 24 22 20 20 19 18 15 13 11 8 6 4 3 4 9 12 16 27 30 26 25 21 18 17 18 18 16 15 16 15 17 20 19 19 22 24 24 21
31 29 27 27 26 26 25 24 23 23 23 23 23 24 24 25 26 26 27 27 27 27 27 28 29 30 32 32 32 33 33 31 29 28 27 27 26 26 25 25 24 25 27 30 32 32 29 27 28 27 25 23 22 21 20 17 15 13 10 8 7 7 7 7 11 14 18 27 25 22 22 18 18 18 17 18 17 16 16 15 16 17 18 18 21 23 24 22
30 28 26 25 25 24 23 22 22 22 22 22 22 23 23 24 24 24 25 26 26 26 26 27 27 29 31 32 33 34 33 32 31 29 28 28 27 27 27 26 26 26 28 32 34 33 31 30 31 30 27 24 23 23 21 18 16 13 10 10 8 7 9 10 12 16 19 23 21 21 21 19 18 19 19 18 17 16 17 16 15 15 16 18 20 22 24 23
30 28 25 24 23 22 21 21 22 22 22 22 21 21 22 22 23 23 23 23 24 24 25 25 26 27 29 32 34 34 33 33 32 31 29 28 28 29 29 28 27 27 29 33 37 36 34 33 33 30 27 26 25 24 23 20 17 14 11 11 10 9 10 11 13 16 18 19 18 19 20 20 19 18 18 17 17 16 16 17 16 14 14 16 18 20 23 23
28 26 24 23 22 21 20 21 22 21 20 20 20 20 20 21 21 21 21 21 22 22 23 23 24 26 28 31 32 33 33 33 32 31 30 29 30 30 30 30 29 29 29 33 38 39 37 36 34 31 29 28 27 26 25 22 20 15 12 12 11 11 11 12 13 15 17 17 16 17 17 18 19 18 17 16 16 16 16 16 16 16 13 13 17 19 21 22
26 24 23 22 21 20 20 21 20 20 19 18 18 19 19 19 19 20 20 20 20 20 20 21 22 24 27 29 31 32 33 33 33 33 32 31 32 33 33 32 31 30 29 32 37 39 39 39 36 33 31 30 30 28 26 24 22 17 15 14 12 11 10 11 12 14 16 15 15 16 15 16 18 17 17 16 15 16 16 17 16 16 13 12 15 18 19 21
24 22 21 20 20 20 20 20 19 19 18 17 18 18 19 19 19 19 20 20 19 18 19 19 20 22 25 27 30 32 33 34 34 35 35 34 34 34 35 35 34 33 31 31 35 39 40 40 38 35 32 31 31 30 27 25 23 19 17 15 13 10 9 10 12 13 15 15 15 15 14 15 16 16 17 16 15 15 16 17 17 16 15 12 14 17 18 19
22 20 19 19 19 19 19 19 18 18 17 17 17 18 19 20 20 20 20 20 19 18 18 18 18 20 23 27 29 32 34 35 35 36 37 37 36 36 36 36 36 35 33 31 35 40 41 41 39 36 32 32 32 30 28 26 23 21 19 17 15 12 10 10 11 12 14 15 16 16 14 14 14 15 17 17 16 15 15 16 17 17 16 14 12 15 18 18
21 19 18 18 18 18 18 18 18 17 17 17 18 19 20 21 21 21 21 20 19 18 17 17 17 18 22 25 28 31 33 34 35 36 37 37 36 36 36 36 37 36 34 33 36 41 43 42 40 37 34 32 31 29 28 26 24 22 20 18 16 14 13 12 11 12 14 15 17 17 15 14 12 13 17 19 18 17 16 15 16 16 16 15 13 14 18 20
20 18 17 17 17 18 18 17 17 16 16 17 18 19 20 21 21 21 21 20 19 18 17 17 16 18 20 23 26 29 32 34 35 37 37 37 36 36 36 37 37 36 35 34 37 42 44 42 40 38 35 33 30 27 25 24 23 22 21 19 17 15 16 16 14 14 15 16 17 17 15 13 11 10 14 21 21 19 17 16 15 16 16 16 14 14 18 21
20 18 17 17 17 18 18 17 16 16 16 18 19 20 20 21 21 20 20 19 18 17 16 16 16 17 19 21 24 27 30 33 35 37 37 37 36 36 36 37 37 36 35 35 37 42 44 43 42 40 37 32 27 24 24 24 23 22 22 21 19 18 18 18 16 15 15 16 16 17 16 14 12 10 11 19 23 21 18 17 15 14 16 17 15 15 18 21
19 17 16 16 17 17 17 17 16 16 16 18 20 21 22 22 21 19 17 16 16 15 15 15 15 16 18 20 24 26 29 32 35 37 37 37 37 37 37 37 37 36 36 35 38 42 44 44 42 38 34 29 26 25 26 26 24 22 23 22 20 21 22 20 18 16 16 17 17 17 17 15 14 12 11 15 22 23 19 17 15 13 14 17 16 15 17 20
18 17 16 16 16 16 16 16 16 15 16 18 20 22 23 22 20 17 15 14 13 12 11 12 13 15 17 20 24 27 29 32 35 36 37 38 38 38 38 38 37 37 36 36 39 42 45 44 40 36 34 31 29 29 28 26 24 23 24 24 21 22 24 24 22 19 18 18 17 16 16 15 14 13 12 12 17 22 23 19 16 15 15 16 17 16 16 17
17 16 16 16 16 15 15 15 15 15 17 19 21 23 23 21 18 15 13 11 10 8 7 8 10 13 17 20 24 27 29 31 34 36 37 38 38 39 39 38 38 38 37 37 39 42 45 43 39 37 36 36 33 31 28 27 26 24 25 25 22 22 22 22 22 20 17 17 15 14 13 13 12 13 13 12 13 19 25 24 20 19 17 16 17 17 15 14
17 16 16 16 15 15 14 15 15 16 18 20 23 23 22 19 16 13 12 10 9 7 6 4 6 10 15 20 23 26 28 31 33 35 36 37 39 40 40 40 39 39 38 38 39 41 42 41 39 39 39 38 36 32 29 28 26 24 24 24 22 21 22 21 21 19 18 17 15 13 13 12 12 12 13 14 14 15 21 25 23 21 20 18 18 18 17 16
17 17 16 16 15 14 14 15 15 16 19 21 23 22 19 16 13 12 11 9 9 8 6 4 1 5 12 18 22 25 27 29 32 35 36 38 39 40 41 41 41 41 40 39 39 41 40 40 41 41 40 40 38 34 31 29 28 26 24 23 23 22 23 22 21 20 19 17 16 15 14 13 14 13 13 15 15 16 18 21 23 22 21 19 19 19 19 19
18 17 16 15 14 14 15 15 15 16 19 21 22 19 16 14 12 11 10 9 11 10 8 7 5 0 7 14 20 24 26 28 31 34 36 38 39 41 42 42 42 42 42 40 40 40 40 41 42 42 41 41 39 36 33 31 29 28 24 23 25 24 22 20 20 20 20 18 18 18 15 14 14 13 13 13 14 16 18 20 23 25 23 19 18 19 20 20
18 17 16 14 14 14 15 15 15 16 18 20 19 17 15 12 10 10 9 9 11 10 9 10 7 3 2 9 16 22 26 28 31 34 36 38 40 41 42 43 43 43 43 42 41 40 41 43 44 43 42 41 40 37 34 32 31 30 27 24 24 22 20 19 20 21 21 21 22 21 17 15 15 13 13 12 13 15 19 22 25 28 26 21 18 19 20 20
19 17 15 13 13 14 15 15 15 16 18 18 17 15 14 12 10 11 11 11 11 9 9 10 8 6 3 5 11 19 24 27 30 33 36 39 40 41 43 44 44 44 44 43 42 41 42 44 44 44 44 42 40 37 35 33 32 31 30 27 25 23 22 22 22 23 23 24 24 23 20 17 16 16 14 14 14 15 17 22 28 30 29 25 21 20 22 21
19 17 14 12 13 14 14 14 14 16 17 17 16 15 14 12 12 11 11 11 10 8 8 10 9 7 5 1 7 14 20 23 28 32 36 39 40 42 43 44 45 45 44 44 44 43 43 45 45 44 44 43 40 37 35 34 32 32 32 30 27 26 25 25 24 24 25 25 23 22 22 20 19 19 17 17 17 16 15 19 27 33 33 29 24 22 23 23
18 15 12 11 12 13 14 13 13 15 16 16 16 16 15 13 12 10 9 9 9 8 8 8 8 7 5 4 4 9 15 21 26 31 35 38 40 42 43 44 45 45 45 44 45 45 46 47 46 45 45 43 41 39 36 35 33 33 32 31 29 28 27 26 25 25 26 25 22 21 22 21 21 21 20 20 20 19 18 18 24 33 38 33 27 25 24 24
17 14 11 10 12 13 13 12 13 15 15 15 16 17 16 13 11 9 8 7 8 9 8 7 8 7 6 5 4 6 12 18 24 28 33 37 40 42 43 44 45 46 45 44 45 46 47 47 47 47 46 45 44 42 39 38 35 33 32 31 30 29 29 27 26 27 27 24 21 21 22 22 20 22 22 22 23 22 21 18 18 28 40 38 31 29 26 25
16 12 10 10 12 13 12 11 13 14 14 15 17 18 16 12 9 8 7 7 8 8 7 7 7 6 6 5 5 6 8 14 21 26 31 35 39 41 43 44 45 46 46 45 45 46 46 47 48 48 48 47 46 44 42 41 39 37 34 31 30 30 30 30 30 30 27 23 22 22 22 21 19 21 24 24 24 24 23 19 15 20 36 41 33 31 29 26
15 11 9 10 11 12 11 11 12 13 14 16 18 18 15 11 8 7 7 7 7 7 7 8 7 7 5 5 6 7 7 11 18 23 28 32 36 39 42 43 45 46 46 46 46 47 46 46 47 48 48 48 47 46 45 43 42 41 38 34 32 33 33 33 33 32 28 23 23 23 22 20 19 21 24 24 25 25 22 21 16 15 27 38 35 31 30 28
14 11 9 10 11 12 11 10 11 12 13 15 17 16 14 10 8 7 7 7 7 7 8 8 8 8 6 5 6 7 8 10 14 20 24 29 33 37 39 42 44 46 46 46 47 47 46 45 46 48 48 48 48 48 47 46 45 44 42 38 37 38 37 36 35 33 28 25 24 23 21 18 18 21 22 23 25 24 21 20 18 14 19 33 36 32 31 29
13 10 9 9 10 11 10 9 11 12 13 14 15 14 12 9 8 7 8 8 8 8 9 8 8 7 6 5 5 6 7 9 11 16 22 26 31 34 37 40 42 44 45 46 47 47 46 45 46 47 48 48 47 47 47 46 46 45 43 41 40 40 38 37 36 32 28 26 24 25 23 18 17 19 20 22 23 21 19 17 16 14 16 28 39 36 32 31
13 10 8 9 10 11 9 9 10 11 12 13 13 13 12 10 9 8 8 9 9 8 9 8 7 7 6 5 5 6 7 8 10 15 20 25 29 32 35 38 40 42 44 46 47 47 46 46 46 46 47 47 46 46 47 47 48 46 45 43 42 42 39 37 36 32 29 28 27 27 26 19 17 18 19 21 21 19 18 14 14 14 14 24 40 39 32 32
13 10 8 8 9 10 8 8 10 10 10 11 12 13 12 11 10 10 9 10 10 8 9 8 7 6 6 5 5 6 7 7 9 12 18 23 26 30 33 35 38 40 43 44 45 46 46 45 45 45 46 46 45 46 47 48 48 48 46 45 44 42 41 39 37 33 31 32 31 29 27 21 18 19 19 19 20 18 17 14 13 14 12 17 33 38 31 31
13 10 8 7 9 9 8 8 9 10 10 10 11 13 13 12 12 10 10 11 10 8 7 7 6 6 5 6 6 6 7 8 8 10 14 19 23 27 31 33 36 39 40 42 44 45 45 44 44 45 45 45 46 46 47 48 48 48 46 44 43 42 42 41 39 37 35 34 33 30 27 23 21 21 19 18 18 17 16 15 12 13 11 10 23 34 33 32
14 10 8 7 8 9 8 8 8 9 10 11 11 12 13 12 11 10 10 10 9 7 6 6 6 6 5 6 7 8 8 9 9 9 13 17 19 23 27 30 32 35 38 40 41 43 44 43 43 45 44 44 46 46 47 48 48 47 46 45 44 43 43 42 40 40 38 36 33 28 26 24 21 20 19 18 18 16 15 14 12 13 13 11 16 28 35 36
15 11 8 7 7 8 7 7 7 9 11 11 10 11 11 11 11 10 9 9 8 6 5 5 6 7 6 6 8 9 9 9 10 10 12 16 17 19 23 26 28 31 34 36 38 41 42 42 42 43 43 43 46 47 48 48 48 47 47 46 45 44 43 41 40 38 37 35 32 28 26 22 19 20 21 18 17 17 15 13 11 12 15 15 14 20 31 39
16 11 8 7 7 7 7 6 6 8 10 10 9 9 9 10 10 9 8 8 7 5 4 3 5 7 7 6 8 10 11 10 10 11 10 11 14 16 19 23 25 28 31 32 35 38 40 41 41 42 43 43 45 47 47 47 47 46 47 46 46 45 44 42 40 38 37 34 31 29 27 22 19 21 22 20 18 18 16 14 13 13 14 16 14 13 23 37
17 12 8 8 8 8 7 7 6 7 9 9 8 7 8 9 10 10 9 8 7 5 5 5 6 7 9 9 9 10 12 12 11 11 11 9 10 13 16 20 24 26 28 29 31 33 36 38 40 41 42 42 43 45 45 45 45 44 44 45 44 45 44 43 43 41 38 35 33 31 28 24 21 22 24 24 20 18 18 16 14 14 15 16 15 11 15 29
17 13 9 9 9 8 8 7 6 6 7 8 7 6 6 8 9 10 11 10 8 6 5 7 8 8 9 10 11 11 12 13 13 12 12 11 10 12 14 18 23 25 26 27 28 29 31 35 37 39 40 40 41 42 43 44 44 42 42 42 43 44 44 44 44 41 38 36 34 32 29 26 24 24 25 27 23 18 19 18 16 15 15 15 15 12 12 19
18 14 10 9 9 8 8 7 6 5 6 7 6 4 4 6 8 9 10 10 9 7 6 6 8 10 10 10 11 13 13 14 15 13 13 13 11 13 15 19 23 24 26 27 26 26 27 31 35 36 38 39 39 40 41 42 42 43 42 42 43 44 44 44 44 42 39 37 35 33 31 27 25 25 25 27 24 19 18 18 16 16 16 16 15 13 12 13
18 15 11 10 9 8 8 7 6 5 5 6 5 4 3 4 6 7 8 9 9 8 7 6 5 8 11 10 11 13 14 15 16 15 15 14 13 14 16 20 23 24 28 28 26 26 25 26 31 34 36 38 38 37 39 41 42 43 43 43 43 43 43 44 43 43 41 39 37 36 33 29 27 26 26 25 23 19 19 18 15 15 14 15 15 13 12 11
18 15 12 10 9 7 7 7 6 6 5 5 5 4 3 3 5 7 7 8 8 8 8 6 5 5 8 10 11 13 14 16 17 17 16 15 15 15 16 20 22 22 29 31 27 26 25 24 28 32 33 36 38 38 39 41 42 43 43 43 43 43 44 43 43 43 43 41 40 38 34 31 30 29 28 25 22 19 20 19 16 15 14 13 12 11 10 9
18 15 12 10 8 7 7 7 7 8 6 6 6 5 3 2 4 6 7 7 7 8 8 6 6 6 7 9 11 12 13 14 17 18 17 17 17 16 16 19 22 19 26 32 30 28 25 22 27 31 31 33 37 37 38 40 42 43 43 43 43 43 44 43 43 43 43 41 41 40 37 34 33 32 30 29 24 21 21 20 19 18 16 13 12 12 11 10
18 16 13 11 7 7 8 8 8 7 7 7 6 5 4 2 3 4 6 6 7 7 7 7 6 5 6 7 8 9 10 13 16 17 17 16 15 16 15 17 21 20 21 29 32 31 26 24 28 31 30 31 34 35 36 38 40 42 42 42 42 42 43 43 43 42 41 41 40 40 39 37 36 34 33 31 29 26 24 22 21 20 19 16 15 15 14 12
19 16 14 11 8 7 8 7 7 7 7 8 7 6 4 2 2 4 5 5 6 7 7 7 7 6 5 5 6 5 6 11 16 16 15 15 14 14 15 15 18 20 18 23 31 34 30 27 29 32 30 30 33 34 34 36 38 40 41 41 41 42 43 43 43 41 40 40 39 38 38 37 36 36 35 34 32 30 28 27 25 24 22 21 20 20 19 17
19 17 15 12 8 7 9 8 7 7 8 9 8 7 5 2 1 2 4 5 5 6 6 6 7 7 6 4 4 3 2 6 15 17 16 15 14 13 14 14 15 16 16 17 26 34 34 30 31 34 33 30 33 35 34 35 37 38 39 40 41 42 42 43 43 42 41 39 38 38 37 36 35 35 35 35 34 31 31 31 30 28 27 26 25 25 24 24
19 18 15 12 10 8 9 9 7 7 8 9 9 7 6 3 1 1 2 4 4 4 5 6 6 7 8 6 4 3 1 3 10 16 16 15 14 13 13 14 13 13 14 15 21 32 36 33 32 34 35 33 33 35 35 34 35 36 38 39 40 41 42 42 42 43 42 40 39 38 37 36 37 35 34 34 33 32 31 31 31 30 29 29 28 27 27 27
18 19 16 12 10 8 9 11 9 8 9 10 9 7 6 5 2 1 2 3 3 4 4 4 5 6 7 7 6 3 3 3 7 13 15 15 15 13 12 13 13 11 12 13 18 28 35 35 33 34 36 37 36 35 35 34 34 34 35 37 39 40 41 41 41 42 43 42 40 39 37 37 37 36 34 34 33 32 31 30 30 30 30 29 28 26 26 27
17 18 16 12 10 8 10 12 11 10 9 10 9 7 6 6 4 1 1 1 2 3 3 4 5 6 7 8 7 4 3 4 5 10 14 15 15 13 12 13 13 12 11 12 15 23 31 34 33 33 35 37 39 39 36 34 34 33 33 34 36 38 40 41 41 41 42 42 42 40 39 38 37 37 36 35 34 31 30 29 29 29 28 28 27 26 25 25
Wind_Direction
332 327 321 315 309 304 299 295 290 286 282 278 275 273 270 267 263 259 255 251 249 248 250 250 249 245 242 241 240 241 242 240 238 235 238 240 238 228 220 223 213 204 196 191 195 198 202 204 201 200 195 193 193 196 194 185 185 187 187 190 196 217 16 57 47 175 171 175 169 159 151 146 136 133 136 133 132 129 125 127 139 151 152 143 128 118 116 117
331 327 322 317 311 305 299 294 289 285 281 277 273 270 269 267 265 262 257 252 249 246 246 247 248 247 243 239 237 237 238 238 235 234 238 238 233 227 222 219 209 202 193 191 196 198 201 202 200 197 193 191 191 194 194 189 187 194 202 200 196 193 34 26 318 202 178 179 174 161 148 146 142 139 142 140 136 131 126 124 132 148 155 151 130 118 117 119
329 326 323 318 314 309 303 297 290 285 280 277 273 269 267 265 264 263 260 255 250 246 243 243 244 245 244 241 237 234 234 233 234 234 233 231 230 227 223 219 212 203 194 193 197 198 200 202 199 196 194 191 193 196 194 192 189 194 204 200 185 170 341 319 311 220 179 179 174 159 147 151 154 149 145 145 140 136 134 130 134 152 159 154 133 120 119 121
328 325 322 318 314 310 306 301 295 288 281 276 272 269 266 263 262 261 260 256 251 247 243 240 239 241 242 242 238 234 231 229 232 232 228 230 229 225 222 217 213 208 199 196 196 197 199 201 197 197 195 191 195 201 197 193 191 197 201 184 149 110 309 304 316 206 173 180 171 155 150 158 160 156 150 149 146 142 144 140 143 156 161 153 137 125 123 125
327 324 320 317 314 310 307 303 298 293 286 278 272 268 265 262 259 258 257 257 253 248 244 241 238 237 238 239 239 236 231 228 230 229 226 229 227 222 220 216 213 210 204 199 196 195 198 199 196 196 194 191 195 201 200 195 194 200 199 172 135 115 300 26 322 184 177 191 170 154 155 162 162 161 154 152 148 143 146 146 147 154 157 150 140 130 128 130
326 323 320 316 313 310 307 304 300 296 290 283 276 270 266 262 260 257 255 255 254 251 245 242 239 236 234 235 236 236 233 229 228 226 226 227 223 221 219 215 212 211 207 200 196 195 197 198 197 197 193 190 193 198 199 198 197 199 200 175 143 130 97 80 140 177 184 186 165 154 157 162 162 162 154 149 146 140 145 151 150 152 156 151 142 135 132 132
326 323 319 316 313 310 308 305 301 296 292 286 281 275 269 264 261 258 255 253 252 252 248 243 240 237 234 232 232 234 234 230 226 223 224 224 221 219 218 214 209 210 208 199 195 195 198 199 199 198 192 190 193 197 201 202 199 197 203 182 149 117 117 111 118 172 180 170 160 155 158 160 157 154 148 146 145 138 141 153 153 152 158 152 141 136 132 130
325 323 320 317 314 312 309 305 301 296 291 286 281 277 272 268 263 260 258 254 251 251 249 245 241 238 235 232 230 231 232 230 227 222 221 221 218 217 216 212 207 207 205 198 194 195 198 200 202 200 192 191 194 196 203 206 200 197 205 189 151 110 120 102 112 160 173 165 161 158 156 155 150 146 143 144 146 141 137 148 156 156 160 153 142 137 133 132
325 323 320 317 314 312 309 305 301 297 292 287 282 278 274 270 267 263 261 258 254 250 249 246 242 238 235 233 230 230 230 229 227 222 220 218 215 215 214 210 205 204 203 198 195 195 198 199 203 202 193 192 194 196 204 206 201 200 205 191 157 135 143 121 124 150 163 161 160 156 152 148 144 144 142 143 146 145 139 143 155 160 161 154 145 140 136 138
324 322 319 316 314 312 308 304 301 298 294 290 286 281 277 273 270 267 264 262 258 253 249 246 243 238 235 233 231 229 227 226 225 223 219 216 213 213 213 210 205 202 200 198 196 197 198 199 204 201 193 191 193 197 202 204 203 202 198 179 161 152 155 148 135 142 152 156 155 150 151 149 146 147 145 145 146 147 144 142 150 159 163 158 151 146 141 142
324 322 319 316 313 310 307 304 302 300 298 294 290 286 282 278 275 272 268 265 262 258 252 247 243 238 234 233 231 229 225 222 222 221 219 216 212 211 212 210 207 203 199 196 197 199 199 200 205 201 192 191 193 198 199 198 201 199 185 169 168 166 162 160 148 144 151 158 158 155 156 156 154 152 151 150 148 148 148 144 145 154 165 165 159 153 146 145
324 322 320 317 314 311 308 306 305 304 302 299 295 292 288 285 281 278 274 270 265 260 255 249 244 238 233 231 230 229 226 222 220 219 217 214 211 209 210 211 208 204 201 197 197 200 200 201 205 201 195 193 194 199 199 196 197 193 181 172 171 172 172 172 164 156 158 164 168 167 163 160 158 157 157 155 152 151 149 147 145 150 164 171 168 161 152 149
324 322 321 318 315 313 312 311 310 309 306 302 299 296 293 290 287 284 281 276 270 264 257 251 245 239 233 230 228 228 226 222 219 216 214 212 210 208 208 209 209 206 202 199 199 200 201 202 204 202 197 194 195 200 200 197 195 185 180 183 178 177 180 179 173 169 166 166 170 172 169 165 160 159 161 161 157 153 151 149 150 151 159 174 174 170 160 154
324 322 321 318 316 315 316 315 314 312 308 304 302 300 299 296 293 291 287 283 277 270 261 252 244 238 232 229 226 224 223 221 218 215 212 210 209 208 206 206 208 208 203 201 201 203 204 204 203 202 200 196 196 199 201 200 195 181 178 189 185 178 178 179 178 176 169 167 168 169 172 170 163 163 166 165 162 159 156 153 155 155 157 171 177 178 171 158
325 323 321 318 317 317 318 317 316 313 309 307 306 304 303 301 298 295 291 287 282 275 266 255 244 236 231 227 223 221 220 218 217 214 211 210 209 208 206 205 205 206 204 200 201 203 207 208 204 201 201 200 199 199 201 202 197 183 180 191 189 179 179 183 181 175 172 173 170 165 170 174 168 168 170 169 166 166 162 158 161 160 158 168 178 182 178 164
326 324 322 319 318 318 318 318 317 314 311 309 309 308 307 305 302 298 294 289 283 276 269 259 247 235 229 225 221 219 218 216 215 214 212 210 208 208 207 206 205 205 203 199 199 202 207 210 208 203 201 203 203 201 202 203 199 188 183 192 193 186 194 199 187 177 177 178 173 166 169 173 174 176 177 174 170 170 169 165 167 163 160 166 174 181 181 171
327 325 323 320 318 318 319 319 317 315 312 311 311 312 312 310 307 303 298 292 284 277 268 260 250 237 228 225 221 219 217 215 214 214 213 211 209 208 208 208 206 205 203 199 198 201 206 209 210 206 203 205 205 203 204 204 201 192 185 192 196 193 199 205 197 187 185 184 178 173 170 167 173 183 184 181 174 172 175 172 171 168 162 162 169 178 181 178
328 326 323 320 319 319 320 320 318 316 314 314 314 315 316 314 311 306 301 295 287 278 268 258 248 237 229 224 221 219 216 213 212 213 213 212 209 208 208 208 208 206 204 201 198 200 203 206 208 207 205 206 205 203 204 206 206 198 188 193 201 197 196 198 197 190 186 187 184 178 174 167 166 177 187 187 179 174 178 179 176 173 167 162 168 180 182 181
329 325 322 320 320 320 321 321 319 317 318 319 319 320 320 317 313 307 301 295 288 280 269 257 244 234 227 221 218 216 215 212 210 210 211 211 209 208 207 208 209 207 205 203 200 200 201 203 206 206 206 206 205 203 204 206 208 204 192 192 201 198 195 197 198 197 191 188 186 181 179 176 170 170 183 189 185 180 182 183 180 178 175 167 168 181 184 183
329 324 323 322 321 321 322 322 319 319 321 323 324 324 323 320 316 310 304 298 292 283 269 256 241 230 222 217 214 211 211 211 209 208 208 208 208 207 207 207 209 208 206 203 202 201 200 201 204 205 206 207 206 205 205 205 206 207 196 193 203 205 202 200 198 202 198 192 190 186 185 185 180 178 182 191 193 190 187 185 185 185 182 176 171 181 188 185
327 324 324 325 323 323 323 320 319 321 324 326 327 327 326 324 320 316 312 309 303 292 274 255 239 224 215 212 210 209 208 208 208 207 206 206 206 206 206 206 207 208 207 204 202 201 200 200 199 200 204 206 206 206 207 206 206 208 201 196 204 206 202 199 199 204 203 198 196 190 189 189 186 186 186 192 200 199 193 186 188 190 190 185 177 181 188 185
327 325 327 327 325 324 323 320 319 322 325 328 330 331 329 327 325 323 321 320 317 311 293 260 237 221 211 208 208 208 207 206 206 206 205 205 204 204 205 205 205 206 207 206 203 202 200 198 196 197 202 205 206 206 206 207 206 207 206 203 203 203 201 200 202 208 210 206 202 197 198 197 194 192 190 190 197 201 197 190 189 190 192 193 185 180 180 179
328 328 329 328 327 325 324 322 321 322 325 330 334 334 333 331 331 332 333 335 337 335 324 288 242 219 208 206 206 207 207 206 204 204 203 203 203 204 204 204 204 205 206 206 205 204 200 195 195 198 202 205 206 205 204 207 206 205 206 207 207 209 211 208 202 205 212 209 202 201 206 206 206 204 199 199 201 203 203 198 194 192 191 194 192 181 174 176
330 331 330 329 328 326 327 326 324 324 327 333 338 337 337 338 338 340 344 353 359 357 353 353 308 217 207 204 204 206 207 205 203 202 201 202 203 203 203 203 204 204 205 205 205 204 200 196 198 200 202 205 206 204 203 206 207 203 202 207 210 209 210 209 204 206 211 210 206 205 209 209 211 211 207 210 209 208 211 208 202 199 196 197 195 184 176 178
334 333 330 329 328 328 331 332 330 328 331 338 342 342 343 345 343 344 353 6 11 13 18 16 18 205 208 206 204 205 205 204 202 202 200 200 202 202 203 203 203 204 204 205 204 202 199 198 201 202 203 206 206 204 204 205 207 202 197 203 207 203 203 205 206 210 212 211 209 207 208 212 213 215 216 218 217 211 211 211 208 205 202 200 197 188 183 183
337 333 330 329 329 332 335 336 336 335 338 343 346 347 348 349 346 348 357 7 10 16 19 14 18 30 217 209 208 208 206 203 201 201 200 199 200 202 203 203 203 204 203 204 204 202 200 200 203 204 205 207 207 205 205 206 207 203 195 196 201 199 201 203 204 209 211 212 212 208 208 213 214 218 225 225 222 217 212 210 211 209 204 202 199 192 190 189
338 333 329 329 331 335 339 340 341 341 344 349 350 351 351 350 349 352 358 360 3 12 15 13 18 16 359 211 212 213 209 204 200 199 199 199 199 201 203 203 203 204 203 204 204 203 202 203 204 205 206 208 207 206 207 209 210 205 195 190 194 198 202 206 208 210 213 216 217 214 212 215 214 218 230 233 228 224 219 212 211 210 206 204 200 195 195 192
339 334 329 330 333 339 341 343 346 346 349 352 352 352 352 351 352 355 357 355 356 6 8 5 6 4 2 279 223 217 214 208 202 199 199 199 199 200 202 203 204 204 203 203 204 204 204 205 206 207 208 208 207 206 208 212 214 209 198 188 190 199 204 209 213 213 216 221 223 221 220 221 222 224 231 237 234 231 230 220 213 210 206 204 201 198 198 195
341 336 330 331 336 341 343 346 349 349 352 354 353 354 355 354 353 350 352 351 349 355 358 355 354 359 2 340 263 224 216 211 207 203 200 199 199 200 201 202 203 204 203 202 203 204 205 206 207 209 210 210 209 207 208 212 216 215 205 193 190 198 205 209 211 215 219 223 225 228 228 226 229 231 232 235 235 234 234 227 219 210 203 201 201 199 200 197
342 336 330 333 338 342 344 349 351 350 352 354 356 358 358 356 350 341 344 345 342 346 349 352 353 352 350 339 304 248 223 214 210 207 203 200 199 200 202 202 203 204 203 202 203 205 205 206 207 210 211 211 210 208 207 209 214 217 213 202 195 199 206 210 212 218 221 222 227 233 235 233 233 234 235 234 234 236 235 232 230 215 202 198 198 197 198 198
342 336 331 336 340 342 346 351 352 349 352 358 359 359 359 355 347 339 344 345 344 347 350 355 357 353 346 329 306 278 241 221 213 209 206 203 200 200 201 202 203 204 203 202 204 205 205 205 207 209 212 212 211 209 207 207 210 214 216 210 203 204 209 213 216 220 221 221 227 234 238 238 236 236 236 235 234 236 238 236 240 222 204 198 196 195 196 197
342 336 334 338 341 344 347 352 351 348 356 3 1 359 358 354 346 344 351 352 350 349 346 344 345 349 344 318 299 281 252 226 215 211 208 205 204 203 202 201 202 203 203 202 204 206 205 205 206 208 211 212 212 210 208 208 209 212 214 213 211 211 213 216 219 221 220 219 226 233 239 239 236 236 236 236 235 235 238 238 241 236 211 202 197 196 197 198
344 339 338 338 340 345 347 349 348 350 3 6 1 358 357 355 353 354 357 356 348 341 337 334 334 337 330 309 297 277 251 229 214 209 207 206 206 206 204 203 202 203 203 202 204 206 205 204 205 208 210 211 212 211 210 209 210 212 213 213 216 218 218 220 223 225 223 222 226 233 238 235 234 238 237 235 236 236 238 238 239 248 231 211 201 197 198 200
347 341 337 334 339 344 346 346 345 354 8 6 360 359 359 359 1 0 359 353 340 330 325 326 328 327 317 303 288 264 243 230 215 204 203 205 207 207 207 206 203 203 204 203 204 206 205 204 205 207 210 211 212 212 211 211 212 213 214 214 218 222 224 226 229 230 228 228 231 236 236 230 230 237 236 233 236 237 240 242 240 251 253 224 207 198 197 200
348 341 332 331 340 343 343 344 345 358 9 3 358 360 1 5 4 359 356 348 336 322 314 316 320 317 310 297 276 252 235 230 219 206 203 204 206 207 207 207 205 205 205 204 205 206 205 205 205 206 209 211 212 213 211 212 212 213 214 214 217 222 224 227 229 230 231 231 232 235 235 228 225 233 234 232 235 238 240 243 239 243 259 234 212 199 196 200
346 339 327 328 338 340 341 342 345 1 8 358 358 1 2 8 8 0 353 345 335 317 306 306 308 308 299 283 268 252 240 234 229 220 212 208 207 207 207 208 207 206 206 207 207 206 206 205 205 206 208 209 211 212 213 213 213 214 215 214 216 220 222 224 227 227 228 230 229 229 229 220 216 225 230 230 233 237 238 239 236 238 255 237 211 200 197 202
344 335 323 324 334 336 339 341 346 1 2 355 360 3 3 7 7 1 351 344 336 315 299 291 285 289 283 268 258 251 248 239 236 236 221 211 210 209 209 208 207 207 208 209 209 208 205 205 205 206 207 208 209 211 213 213 214 215 216 216 216 219 222 223 225 227 227 228 226 226 225 217 211 218 225 228 229 232 236 235 234 234 240 231 208 202 201 204
345 333 320 321 330 334 337 337 347 0 359 355 1 2 1 2 2 360 351 344 338 318 298 283 273 272 267 260 249 242 246 236 234 244 227 211 212 215 212 210 208 207 208 210 211 210 206 205 206 206 206 207 208 211 213 213 214 215 216 217 216 219 223 223 225 227 227 228 226 225 226 220 212 215 221 226 225 225 229 228 229 232 228 219 211 209 206 205
346 334 318 314 321 326 326 324 343 1 358 356 0 0 359 357 354 355 349 343 341 326 303 283 268 261 254 255 246 234 236 235 235 250 237 210 208 218 216 213 210 208 209 210 211 211 207 206 207 206 205 207 208 210 212 214 215 214 215 216 216 219 223 225 227 229 230 230 229 227 226 221 211 212 218 223 223 222 222 220 221 231 231 223 218 220 215 209
346 336 315 301 306 313 315 314 339 1 358 355 357 358 357 355 352 351 345 338 337 329 304 270 253 251 244 244 247 235 231 237 240 251 253 218 205 216 220 216 211 208 209 210 210 211 209 207 208 207 204 206 209 210 212 214 216 216 216 217 216 218 221 224 228 230 230 232 232 229 226 219 210 211 214 219 224 221 217 216 216 226 238 232 224 229 222 209
346 338 314 296 299 309 313 312 330 354 354 352 355 354 350 352 352 350 345 338 332 322 299 261 235 238 239 236 244 241 233 239 242 241 250 241 213 214 220 218 212 208 210 210 208 210 209 207 208 208 205 205 208 209 211 214 216 218 220 220 219 220 221 223 226 228 228 230 231 230 226 219 217 219 214 213 218 220 217 216 218 225 241 244 233 228 218 208
344 340 320 299 295 306 315 314 323 341 348 350 351 346 343 348 350 350 349 345 333 326 309 267 232 224 234 234 235 239 236 240 245 239 238 240 229 222 220 216 212 209 208 208 207 209 209 207 208 208 205 205 207 208 210 212 214 215 218 220 222 223 223 225 227 229 229 230 231 231 228 221 220 228 222 210 209 216 216 216 220 226 238 249 245 235 219 214
344 341 326 305 293 302 315 316 316 322 335 344 343 336 341 348 348 349 352 348 336 331 328 286 239 219 226 234 235 238 240 241 245 245 239 238 236 231 224 215 212 210 208 207 205 207 208 206 206 207 205 204 206 207 208 210 212 213 214 217 219 222 224 226 228 230 231 232 233 233 232 223 219 232 229 208 200 210 213 214 221 227 234 243 246 245 234 228
344 341 329 308 293 296 309 310 302 298 312 329 331 331 348 352 350 350 351 350 343 337 336 318 270 227 222 230 238 241 243 243 244 243 241 241 242 240 231 222 217 209 204 204 203 202 207 207 204 204 205 203 203 205 206 207 209 212 213 215 218 220 223 226 227 229 229 230 232 232 231 225 220 231 233 210 195 205 212 210 216 221 228 236 241 245 245 240
342 340 330 311 294 288 297 300 288 280 292 311 316 323 347 358 354 355 351 349 347 344 340 327 305 265 239 237 242 247 246 242 241 241 240 240 244 250 244 236 232 211 194 197 201 199 203 206 201 201 204 204 202 203 205 206 207 210 212 214 217 219 222 224 225 228 230 230 231 232 230 226 222 226 234 225 205 203 211 213 214 217 220 226 232 237 242 245
340 338 329 315 298 278 280 288 282 276 282 292 300 308 327 352 357 360 356 349 346 348 348 337 313 292 277 263 255 257 252 236 231 236 238 238 243 251 250 245 247 227 191 188 196 197 198 202 200 199 202 204 204 205 206 206 207 209 211 213 215 217 221 223 224 227 230 230 232 233 232 230 227 224 230 235 225 213 213 215 216 218 220 222 226 228 230 238
339 336 327 315 295 263 263 275 277 275 276 281 289 295 302 327 353 2 2 353 347 347 349 348 333 305 290 283 272 270 258 231 221 227 233 235 239 245 247 247 252 244 205 186 189 194 195 197 199 199 200 201 202 204 206 207 208 210 212 214 215 217 220 223 224 226 229 230 231 234 234 233 232 228 227 232 235 230 225 223 222 222 225 229 233 232 230 235
338 334 326 316 294 254 248 262 272 271 268 271 279 284 288 308 347 1 4 359 352 349 343 342 344 335 313 293 285 291 271 227 217 219 225 229 233 238 242 247 253 254 231 195 187 191 194 197 198 198 199 200 200 202 205 207 209 211 213 215 217 218 220 222 224 225 228 230 231 233 234 235 235 234 229 229 234 237 237 237 236 235 236 239 244 244 243 244
337 334 327 316 297 256 237 244 259 263 262 266 270 273 274 286 349 2 2 2 358 352 343 338 339 343 343 322 291 306 320 222 213 215 218 222 229 234 237 243 251 256 247 214 192 190 194 199 199 196 197 199 200 202 204 206 209 211 213 216 218 220 222 223 224 225 227 230 231 232 234 235 236 236 234 232 234 238 240 240 242 245 247 250 252 253 253 253
334 335 329 315 298 264 233 234 248 256 256 260 263 265 264 265 301 4 3 4 1 355 349 342 337 341 350 347 321 295 314 203 207 213 217 217 223 230 233 238 246 252 254 235 204 194 196 202 203 197 195 196 199 202 204 206 209 211 214 217 219 221 223 225 226 227 228 229 231 232 233 235 237 238 238 237 238 240 242 242 243 247 252 256 257 257 256 256
330 334 331 316 298 270 235 232 245 252 250 253 257 259 257 253 249 331 1 5 0 359 359 349 341 345 351 352 345 309 257 218 204 210 215 216 220 227 231 233 238 244 255 248 217 200 199 205 207 202 197 195 197 202 206 207 209 211 214 218 220 222 224 226 227 229 230 230 231 232 233 235 238 240 240 240 241 242 244 246 248 251 254 257 258 257 256 256
325 332 332 318 298 270 236 229 238 247 247 250 253 252 252 251 242 246 314 345 356 0 9 0 352 353 352 352 356 348 262 236 226 214 212 214 220 224 224 224 230 239 250 251 229 209 203 205 209 209 204 200 198 200 205 209 211 214 215 218 222 224 225 227 229 230 231 232 232 233 233 234 236 239 241 242 242 244 246 248 250 252 253 254 254 255 255 254